{"data":{"norad_id":66891,"intl_designator":"2025-283P","name":"STARLINK-35855","alt_names":[],"object_type":"PAYLOAD","status":"ACTIVE","operator":null,"country":"US","launch_date":"2025-12-04","launch_site_code":"AFWTR","launch_vehicle":null,"mission":null,"orbit_class":"UNKNOWN","rcs_meters":null,"size_class":null,"mass_kg":null,"dimensions":null,"purposes":["comms"],"wikipedia_slug":null,"has_3d_model":false,"image_url":null,"decayed_at":null,"tle_current":{"epoch":"2026-09-20T12:51:02.567232Z","epoch_age_seconds":81301,"freshness":"FRESH","line1":"1 66891U 25283P   26263.53544638  .00027924  00000+0  83418-3 0  9997","line2":"2 66891  53.1591 195.7454 0000659  95.7271 264.3807 15.34411967 45721","mean_motion":15.34411967,"eccentricity":6.59e-5,"inclination_deg":53.1591,"raan_deg":195.7454,"arg_perigee_deg":95.7271,"mean_anomaly_deg":264.3807,"bstar":0.00083418,"rev_number":4572,"period_min":93.847026155265,"perigee_km":462.21686296446,"apogee_km":463.11848102023,"semimajor_km":6840.8046719923,"source":"CELESTRAK","updated_at":"2026-09-21T09:00:36.052086Z"}}}